PBO Station Position Time Series. Reference Frame : NAM14
Format Version,1.1.1
4-character ID,P179
Station name,IllinoisApOR2007
Begin Date, 2007-06-13
End Date, 2023-06-26
Release Date, 2023-06-27
Reference position, 42.0989719257 North Latitude, -123.6855716717 East Longitude, 402.20991 meters elevation,
Date, North (mm), East (mm), Vertical (mm), North Std. Deviation (mm), East Std. Deviation (mm),              Vertical Std. Deviation (mm), Quality,
2007-06-13,0.00, 0.00, 0.00, 2.09, 1.55, 7.03, repro,
2007-06-14,0.93, 0.40, 0.30, 2.13, 1.59, 7.14, repro,
2007-06-15,1.97, 2.14, 1.18, 2.08, 1.56, 7.06, repro,
2007-06-16,0.26, 1.14, -1.18, 2.07, 1.56, 7.03, repro,
2007-06-17,0.92, 1.63, -0.60, 2.08, 1.55, 7.02, repro,
2007-06-18,0.61, 2.52, 8.93, 2.09, 1.54, 7.00, repro,
2007-06-19,-0.60, 1.72, 1.98, 2.14, 1.60, 7.21, repro,
2007-06-20,-0.13, 2.22, -0.62, 2.10, 1.57, 7.14, repro,
2007-06-21,-0.40, 1.64, -2.44, 2.08, 1.56, 7.07, repro,
2007-06-22,0.92, 2.61, -1.51, 2.08, 1.57, 7.08, repro,
2007-06-23,0.69, 1.94, -0.94, 2.15, 1.63, 7.34, repro,
2007-06-24,0.86, 1.34, -4.57, 2.17, 1.65, 7.44, repro,
2007-06-25,0.93, 1.51, -1.63, 2.10, 1.56, 7.14, repro,
2007-06-26,0.77, 1.22, -6.87, 2.07, 1.54, 7.01, repro,
2007-06-27,1.30, 1.43, -0.38, 2.07, 1.55, 7.01, repro,
2007-06-28,2.12, 4.09, -0.34, 2.08, 1.57, 7.12, repro,
2007-06-29,-2.37, 1.51, 12.75, 2.08, 1.55, 7.05, repro,
2007-06-30,2.30, 0.65, -2.91, 2.08, 1.55, 7.06, repro,
2007-07-01,-0.09, 0.98, -2.32, 2.09, 1.56, 7.11, repro,
2007-07-02,-0.71, 3.14, -0.22, 2.21, 1.63, 7.35, repro,
2007-07-03,0.85, 2.50, 0.84, 2.09, 1.56, 7.07, repro,
2007-07-04,0.76, 2.47, -2.43, 2.07, 1.56, 7.02, repro,
2007-07-05,1.04, 0.83, -3.82, 2.09, 1.56, 7.03, repro,
2007-07-06,2.08, 1.34, -0.83, 2.08, 1.54, 6.98, repro,
2007-07-07,1.91, 1.92, -2.67, 2.09, 1.55, 7.07, repro,
2007-07-08,0.12, 1.51, 4.06, 2.08, 1.56, 7.06, repro,
2007-07-09,-0.13, 2.15, 4.95, 2.08, 1.56, 7.07, repro,
2007-07-10,-0.15, -0.07, 6.43, 2.09, 1.56, 7.03, repro,
2007-07-11,2.45, 0.87, 0.35, 2.15, 1.58, 7.15, repro,
2007-07-12,1.32, 2.26, -4.85, 2.09, 1.54, 7.05, repro,
2007-07-13,0.04, 0.93, 6.91, 2.16, 1.67, 7.51, repro,
2007-07-14,-0.99, 0.88, 15.79, 2.12, 1.63, 7.29, repro,
2007-07-15,1.75, 3.63, 0.12, 2.09, 1.56, 7.09, repro,
2007-07-16,2.91, 0.08, 8.11, 2.07, 1.55, 6.96, repro,
2007-07-17,-0.43, 1.91, 5.90, 2.08, 1.54, 7.00, repro,
2007-07-18,1.54, 3.24, 7.45, 2.11, 1.55, 7.13, repro,
2007-07-19,-0.63, 3.11, 5.48, 2.09, 1.57, 7.07, repro,
2007-07-20,-0.24, 1.97, 8.77, 2.19, 1.67, 7.52, repro,
2007-07-21,1.77, 3.39, 8.28, 2.18, 1.67, 7.48, repro,
2007-07-22,0.59, 3.51, 1.69, 2.12, 1.60, 7.23, repro,
2007-07-23,2.11, 1.39, -0.48, 2.14, 1.62, 7.31, repro,
2007-07-24,0.09, 3.35, 5.39, 2.09, 1.56, 7.04, repro,
2007-07-25,3.58, 1.40, -2.69, 2.12, 1.63, 7.31, repro,
2007-07-26,2.20, 0.56, 11.50, 2.08, 1.56, 7.08, repro,
2007-07-27,0.34, 0.87, 7.82, 2.11, 1.61, 7.22, repro,
2007-07-28,0.71, 0.43, 2.54, 2.20, 1.71, 7.71, repro,
2007-07-29,2.01, 1.10, 6.20, 2.10, 1.55, 7.06, repro,
2007-07-30,0.66, -0.70, 11.14, 2.08, 1.56, 7.05, repro,
2007-07-31,-0.45, -0.18, 7.52, 2.06, 1.55, 7.01, repro,
2007-08-01,-2.48, 1.53, 15.01, 2.06, 1.55, 6.98, repro,
2007-08-02,-0.76, -0.48, 12.76, 2.08, 1.54, 7.00, repro,
2007-08-03,-0.42, -1.21, 10.39, 2.09, 1.54, 7.01, repro,
2007-08-04,0.75, -2.57, 10.95, 2.09, 1.55, 7.01, repro,
2007-08-05,-0.29, -2.23, 14.32, 2.07, 1.55, 7.00, repro,
2007-08-06,-1.80, -0.87, 11.76, 2.13, 1.64, 7.40, repro,
2007-08-07,-1.46, -0.19, 17.48, 2.18, 1.64, 7.39, repro,
2007-08-08,-1.15, -0.37, 7.92, 2.09, 1.55, 7.04, repro,
2007-08-09,-2.28, -0.27, 18.81, 2.15, 1.63, 7.39, repro,
2007-08-10,-2.29, -0.90, 20.82, 2.13, 1.59, 7.15, repro,
2007-08-11,-0.03, -0.89, 13.96, 2.06, 1.55, 7.01, repro,
2007-08-12,-0.75, -1.06, 16.08, 2.08, 1.55, 7.03, repro,
2007-08-13,-1.63, -1.35, 15.81, 2.08, 1.54, 7.00, repro,
2007-08-14,-0.60, -2.05, 12.57, 2.25, 1.71, 7.67, repro,
2007-08-15,1.03, -1.24, 11.44, 2.19, 1.67, 7.37, repro,
2007-08-16,-1.51, -1.15, 13.31, 2.15, 1.62, 7.27, repro,
2007-08-17,-2.10, -1.74, 10.41, 2.15, 1.63, 7.28, repro,
2007-08-18,-2.06, 0.04, 13.50, 2.21, 1.64, 7.48, repro,
2007-08-19,2.23, -1.25, 17.40, 2.31, 1.74, 7.94, repro,
2007-08-20,-1.66, -2.17, 10.79, 2.20, 1.62, 7.41, repro,
2007-08-21,-0.57, -1.37, 12.84, 2.17, 1.61, 7.33, repro,
2007-08-22,-1.42, -1.64, 11.42, 2.16, 1.60, 7.24, repro,
2007-08-23,-2.87, -1.27, 16.30, 2.11, 1.56, 7.08, repro,
2007-08-24,-3.85, -0.68, 16.92, 2.25, 1.64, 7.54, repro,
2007-08-25,-1.35, -1.43, 9.34, 2.19, 1.64, 7.45, repro,
2007-08-26,-1.98, -0.27, 15.21, 2.24, 1.68, 7.60, repro,
2007-08-27,-1.88, -1.69, 14.27, 2.19, 1.67, 7.50, repro,
2007-08-28,-1.86, -1.22, 21.96, 2.16, 1.62, 7.31, repro,
2007-08-29,-1.74, 0.25, 9.80, 2.18, 1.62, 7.36, repro,
2007-08-30,-1.96, 0.92, 15.81, 2.19, 1.63, 7.46, repro,
2007-08-31,-1.84, -2.95, 16.63, 2.18, 1.64, 7.41, repro,
2007-09-01,-1.51, -1.83, 15.52, 2.16, 1.62, 7.31, repro,
2007-09-02,-1.61, -2.11, 10.74, 2.17, 1.62, 7.35, repro,
2007-09-03,-0.46, -2.49, 16.68, 2.18, 1.62, 7.33, repro,
2007-09-04,-0.28, -1.54, 20.57, 2.20, 1.63, 7.44, repro,
2007-09-05,-3.61, -1.09, 17.16, 2.20, 1.63, 7.44, repro,
2007-09-06,-1.06, -1.94, 15.91, 2.18, 1.62, 7.35, repro,
2007-09-07,-1.86, -1.63, 20.65, 2.16, 1.62, 7.33, repro,
2007-09-08,-1.80, -1.87, 17.22, 2.26, 1.70, 7.71, repro,
2007-09-09,-2.42, -1.54, 16.21, 2.27, 1.72, 7.80, repro,
2007-09-10,-2.28, -1.46, 18.08, 2.18, 1.63, 7.36, repro,
2007-09-11,-2.28, -0.82, 18.27, 2.18, 1.63, 7.38, repro,
2007-09-12,-2.97, -1.35, 20.04, 2.17, 1.62, 7.32, repro,
2007-09-13,-2.17, -2.05, 19.40, 2.29, 1.72, 7.71, repro,
2007-09-14,-1.71, -2.46, 14.57, 2.23, 1.67, 7.63, repro,
2007-09-15,-2.49, -1.58, 20.66, 2.26, 1.66, 7.68, repro,
2007-09-16,-1.64, -1.94, 21.50, 2.18, 1.63, 7.37, repro,
2007-09-17,-2.96, -1.56, 20.33, 2.22, 1.67, 7.62, repro,
2007-09-18,-1.30, -0.82, 15.78, 2.11, 1.63, 7.28, repro,
2007-09-19,-2.52, -1.80, 15.18, 2.09, 1.55, 7.06, repro,
2007-09-20,0.01, -1.48, 20.64, 2.11, 1.56, 7.12, repro,
2007-09-21,-2.29, -1.19, 24.18, 2.17, 1.61, 7.40, repro,
2007-09-22,-3.00, -1.31, 22.39, 2.17, 1.59, 7.21, repro,
2007-09-23,-1.74, -1.97, 20.47, 2.13, 1.58, 7.18, repro,
2007-09-24,-2.08, 0.15, 13.77, 2.22, 1.64, 7.47, repro,
2007-09-25,-2.93, -1.36, 10.20, 2.20, 1.59, 7.38, repro,
2007-09-26,-2.54, -0.50, 22.26, 2.15, 1.57, 7.20, repro,
2007-09-27,-1.20, -0.44, 21.30, 2.15, 1.58, 7.26, repro,
2007-09-28,-1.79, -1.09, 26.63, 2.10, 1.59, 7.17, repro,
2007-09-29,-3.32, -0.81, 14.09, 2.18, 1.65, 7.40, repro,
2007-09-30,-1.25, -1.32, 17.91, 2.19, 1.66, 7.42, repro,
2007-10-01,-3.14, -1.37, 18.03, 2.17, 1.65, 7.38, repro,
2007-10-02,-2.08, -0.28, 23.57, 2.21, 1.70, 7.59, repro,
2007-10-03,-2.13, 0.39, 26.05, 2.15, 1.61, 7.34, repro,
2007-10-04,-2.00, -0.80, 16.23, 2.16, 1.63, 7.41, repro,
2007-10-05,-3.24, -0.28, 22.02, 2.21, 1.70, 7.68, repro,
2007-10-06,-2.57, -0.80, 19.56, 2.18, 1.66, 7.43, repro,
2007-10-07,-1.34, -0.00, 9.46, 2.24, 1.67, 7.53, repro,
2007-10-08,-5.00, 0.13, 20.42, 2.42, 1.77, 8.13, repro,
2007-10-09,-3.55, -0.05, 19.77, 2.26, 1.74, 7.82, repro,
2007-10-10,-3.27, -1.33, 20.85, 2.32, 1.72, 7.83, repro,
2007-10-11,-1.79, -1.51, 16.13, 2.16, 1.65, 7.38, repro,
2007-10-12,-1.79, -0.31, 19.93, 2.17, 1.65, 7.41, repro,
2007-10-13,-3.46, -0.08, 21.84, 2.11, 1.58, 7.16, repro,
2007-10-14,-1.34, -1.01, 18.44, 2.10, 1.59, 7.16, repro,
2007-10-15,-2.71, 0.48, 22.90, 2.15, 1.64, 7.30, repro,
2007-10-16,-3.15, 0.19, 28.58, 2.14, 1.61, 7.36, repro,
2007-10-17,-2.52, -0.55, 15.81, 2.18, 1.65, 7.47, repro,
2007-10-18,-3.64, -0.99, 14.53, 2.12, 1.59, 7.24, repro,
2007-10-19,-1.55, -2.86, 15.45, 2.10, 1.57, 7.21, repro,
2007-10-20,-1.12, 0.04, 14.40, 2.08, 1.56, 7.06, repro,
2007-10-21,-2.21, 0.19, 12.67, 2.10, 1.59, 7.14, repro,
2007-10-22,-3.12, -0.26, 5.11, 2.11, 1.59, 7.28, repro,
2007-10-23,-2.18, 0.92, 10.32, 2.18, 1.65, 7.40, repro,
2007-10-24,-3.67, -0.08, 8.02, 2.23, 1.69, 7.58, repro,
2007-10-25,-2.60, 0.21, 15.67, 2.11, 1.58, 7.18, repro,
2007-10-26,-1.53, 0.77, 10.09, 2.11, 1.63, 7.19, repro,
2007-10-27,-1.87, -0.54, 11.01, 2.09, 1.59, 7.14, repro,
2007-10-28,-2.73, 0.17, 8.27, 2.12, 1.61, 7.31, repro,
2007-10-29,-1.97, 0.64, 10.57, 2.11, 1.60, 7.22, repro,
2007-10-30,-2.53, 0.35, 8.55, 2.13, 1.65, 7.35, repro,
2007-10-31,-3.05, -0.08, 13.33, 2.10, 1.59, 7.17, repro,
2007-11-01,-2.43, -0.39, 10.43, 2.05, 1.55, 6.97, repro,
2007-11-02,-0.95, -0.25, 6.00, 2.05, 1.56, 7.00, repro,
2007-11-03,-1.27, 0.27, 8.65, 2.06, 1.56, 7.00, repro,
2007-11-04,-2.34, 0.08, 9.10, 2.08, 1.57, 7.05, repro,
2007-11-05,-2.66, -0.33, 12.35, 2.05, 1.55, 6.90, repro,
2007-11-06,-2.05, -0.84, 4.86, 2.13, 1.64, 7.35, repro,
2007-11-07,-1.72, -0.85, 8.28, 2.07, 1.55, 7.05, repro,
2007-11-08,-2.26, -0.58, 11.75, 2.10, 1.59, 7.13, repro,
2007-11-09,-1.49, -1.48, 2.73, 2.14, 1.60, 7.22, repro,
2007-11-10,-1.51, -0.08, 16.35, 2.11, 1.60, 7.25, repro,
2007-11-11,-1.49, -1.38, 8.13, 2.08, 1.56, 7.08, repro,
2007-11-12,-2.43, -1.85, 7.78, 2.13, 1.60, 7.25, repro,
2007-11-13,-1.24, -3.51, 9.68, 2.08, 1.56, 7.10, repro,
2007-11-14,-2.33, 0.33, 7.22, 2.12, 1.58, 7.20, repro,
2007-11-15,-3.78, 3.79, 8.21, 2.12, 1.60, 7.24, repro,
2007-11-16,-2.11, 0.45, 11.21, 2.08, 1.57, 7.09, repro,
2007-11-17,-2.29, -3.86, -3.75, 2.07, 1.55, 7.02, repro,
2007-11-18,-1.28, -2.88, 7.29, 2.08, 1.56, 7.10, repro,
2007-11-19,-1.20, 0.08, 9.85, 2.07, 1.57, 7.06, repro,
2007-11-20,-1.67, -0.69, 2.85, 2.08, 1.60, 7.12, repro,
2007-11-21,-2.26, -0.08, 7.36, 2.06, 1.61, 7.12, repro,
2007-11-22,-1.37, -1.18, -0.82, 2.06, 1.57, 7.01, repro,
2007-11-23,-1.31, -0.53, 6.52, 2.09, 1.65, 7.29, repro,
2007-11-24,-1.15, -1.96, 8.96, 2.06, 1.59, 7.06, repro,
2007-11-25,-0.93, -1.64, 8.61, 2.08, 1.61, 7.19, repro,
2007-11-26,-1.90, 0.02, 6.19, 2.15, 1.70, 7.48, repro,
2007-11-27,-1.07, -1.81, 7.53, 2.13, 1.66, 7.31, repro,
2007-11-28,-2.63, -1.08, 1.67, 2.13, 1.65, 7.29, repro,
2007-11-29,-1.52, -2.85, -1.69, 2.13, 1.63, 7.30, repro,
2007-11-30,-1.51, -2.17, 4.74, 2.12, 1.65, 7.22, repro,
2007-12-01,-1.28, -1.16, 15.23, 2.20, 1.75, 7.68, repro,
2007-12-02,-2.21, -0.64, 9.24, 2.23, 1.77, 7.89, repro,
2007-12-03,-2.42, -3.81, 6.46, 2.20, 1.71, 7.68, repro,
2007-12-04,-2.81, -1.20, 7.03, 2.17, 1.71, 7.63, repro,
2007-12-05,-1.13, -0.34, 9.30, 2.17, 1.74, 7.68, repro,
2007-12-06,-0.70, 0.38, 12.23, 2.29, 1.85, 8.07, repro,
2007-12-07,-1.74, -1.01, 9.24, 2.20, 1.76, 7.66, repro,
2007-12-08,-2.82, -0.25, 3.17, 2.16, 1.69, 7.43, repro,
2007-12-09,-0.31, -1.05, 6.14, 2.40, 2.09, 8.84, repro,
2007-12-10,-0.06, -0.67, 4.66, 2.15, 1.72, 7.41, repro,
2007-12-11,-1.21, -0.72, 5.76, 2.19, 1.71, 7.48, repro,
2007-12-12,-1.15, -1.31, -2.60, 2.19, 1.68, 7.41, repro,
2007-12-13,-2.05, -0.26, 1.30, 2.21, 1.68, 7.44, repro,
2007-12-14,-0.67, -0.79, 4.38, 2.12, 1.59, 7.18, repro,
2007-12-15,0.66, 1.07, 13.13, 2.20, 1.64, 7.40, repro,
2007-12-16,-0.86, -0.39, 8.69, 2.13, 1.60, 7.20, repro,
2007-12-17,-0.74, -0.47, 12.02, 2.19, 1.65, 7.38, repro,
2007-12-18,-0.68, -1.10, 11.76, 2.14, 1.64, 7.37, repro,
2007-12-19,-1.97, -0.32, 9.48, 2.13, 1.62, 7.24, repro,
2007-12-20,-1.60, -1.74, 10.60, 2.17, 1.67, 7.43, repro,
2007-12-21,-0.15, -0.84, 4.19, 2.22, 1.72, 7.77, repro,
2007-12-22,-1.03, -0.69, 7.72, 2.26, 1.77, 7.87, repro,
2007-12-23,-1.16, 0.85, 2.60, 2.17, 1.68, 7.50, repro,
2007-12-24,0.55, -1.39, -2.83, 2.14, 1.63, 7.31, repro,
2007-12-25,1.72, -0.57, 3.19, 2.19, 1.63, 7.39, repro,
2007-12-26,0.69, -3.02, 8.12, 2.14, 1.62, 7.28, repro,
2007-12-27,-0.67, -0.48, 13.79, 2.19, 1.65, 7.46, repro,
2007-12-28,-2.06, 0.70, 7.00, 2.18, 1.64, 7.44, repro,
2007-12-29,0.53, -1.76, 9.13, 2.15, 1.60, 7.27, repro,
2007-12-30,-2.03, -1.80, 6.93, 2.15, 1.59, 7.22, repro,
2007-12-31,-0.56, 0.21, 2.20, 2.13, 1.57, 7.18, repro,
2008-01-01,-1.09, 0.47, -0.80, 2.14, 1.58, 7.21, repro,
2008-01-02,-2.42, -0.36, 0.44, 2.13, 1.57, 7.13, repro,
2008-01-03,-2.36, -1.04, 11.93, 2.09, 1.53, 7.01, repro,
2008-01-04,-2.88, -1.73, 9.91, 2.14, 1.58, 7.25, repro,
2008-01-05,-3.68, -2.21, 10.33, 2.15, 1.58, 7.29, repro,
2008-01-06,0.18, 1.94, -2.60, 2.09, 1.54, 7.05, repro,
2008-01-07,-2.71, 4.28, 7.98, 2.09, 1.54, 7.01, repro,
2008-01-08,-4.87, 1.00, 2.99, 2.15, 1.55, 7.15, repro,
2008-01-09,-1.02, -1.26, 0.87, 2.16, 1.57, 7.28, repro,
2008-01-10,-1.22, -0.15, -8.06, 2.09, 1.56, 7.10, repro,
2008-01-11,-2.07, -0.71, 2.58, 2.09, 1.55, 7.05, repro,
2008-01-12,-0.13, -0.96, 2.16, 2.09, 1.56, 7.04, repro,
2008-01-13,-3.06, 1.14, -2.35, 2.09, 1.55, 6.98, repro,
2008-01-14,-1.58, 1.28, 1.52, 2.08, 1.55, 7.02, repro,
2008-01-15,-0.62, 2.43, -0.69, 2.15, 1.60, 7.17, repro,
2008-01-16,-0.25, 0.52, -0.16, 2.11, 1.57, 7.13, repro,
2008-01-17,-0.60, 0.49, 3.15, 2.10, 1.56, 7.08, repro,
2008-01-18,-2.09, 1.39, 0.91, 2.09, 1.58, 7.09, repro,
2008-01-19,-1.65, 1.42, -1.37, 2.08, 1.54, 6.97, repro,
2008-01-20,-2.40, -0.05, 3.09, 2.07, 1.54, 6.99, repro,
2008-01-21,-2.00, -0.36, 4.36, 2.07, 1.55, 7.03, repro,
2008-01-22,-2.21, 1.41, 3.91, 2.06, 1.55, 6.96, repro,
2008-01-23,-1.35, 2.12, 5.02, 2.05, 1.54, 6.94, repro,
2008-01-24,-3.16, 1.46, 8.85, 2.07, 1.54, 6.99, repro,
2008-01-25,-2.50, 0.43, 5.71, 2.07, 1.54, 6.98, repro,
2008-01-26,-2.80, 1.37, 8.44, 2.08, 1.54, 6.99, repro,
2008-01-27,-1.79, 3.40, 10.98, 2.06, 1.55, 6.99, repro,
2008-01-28,-0.94, 0.31, 12.13, 2.06, 1.54, 6.95, repro,
2008-01-29,-2.01, 4.58, 3.01, 2.17, 1.66, 7.40, repro,
2008-01-30,-1.27, 1.69, -5.70, 2.20, 1.63, 7.45, repro,
2008-01-31,-2.35, 0.08, -2.98, 2.15, 1.60, 7.29, repro,
2008-02-01,0.31, 0.74, -3.61, 2.07, 1.55, 6.99, repro,
2008-02-02,-0.33, 3.26, -14.98, 2.07, 1.55, 7.01, repro,
2008-02-03,-1.57, 0.17, 6.41, 2.06, 1.56, 7.04, repro,
2008-02-04,-2.16, 2.31, -3.51, 2.06, 1.55, 7.00, repro,
2008-02-05,-1.89, 2.07, 3.20, 2.10, 1.61, 7.17, repro,
2008-02-06,-0.22, 3.14, 3.04, 2.11, 1.62, 7.19, repro,
2008-02-07,-0.05, -1.07, 0.15, 2.11, 1.60, 7.29, repro,
2008-02-08,-2.41, 2.73, 4.12, 2.05, 1.55, 6.97, repro,
2008-02-09,-2.35, 2.61, 1.39, 2.07, 1.54, 6.97, repro,
2008-02-10,-3.00, 3.14, -0.92, 2.07, 1.54, 6.97, repro,
2008-02-11,-2.87, 2.47, -1.80, 2.06, 1.55, 6.98, repro,
2008-02-12,-2.10, 2.61, -3.21, 2.08, 1.55, 7.05, repro,
2008-02-13,-1.06, 1.00, -3.11, 2.07, 1.55, 7.03, repro,
2008-02-14,-1.91, 1.93, 0.57, 2.06, 1.54, 6.97, repro,
2008-02-15,-1.64, 2.28, -0.54, 2.09, 1.59, 7.12, repro,
2008-02-16,-2.24, 2.42, 2.28, 2.07, 1.55, 6.97, repro,
2008-02-17,-1.70, 1.83, -0.92, 2.06, 1.55, 6.96, repro,
2008-02-18,-2.47, 1.23, 3.79, 2.07, 1.56, 7.01, repro,
2008-02-19,-2.24, 2.00, 1.60, 2.07, 1.56, 7.00, repro,
2008-02-20,-2.66, 2.22, 1.36, 2.06, 1.55, 6.97, repro,
2008-02-21,-2.18, 2.64, 11.25, 2.05, 1.55, 6.97, repro,
2008-02-22,-1.76, 2.09, 5.65, 2.07, 1.56, 7.02, repro,
2008-02-23,-1.89, 1.59, 4.66, 2.07, 1.56, 7.00, repro,
2008-02-24,-4.75, 1.15, 7.05, 2.07, 1.55, 6.98, repro,
2008-02-25,-3.23, 3.03, 3.42, 2.08, 1.56, 7.03, repro,
2008-02-26,-1.62, 2.25, -4.92, 2.06, 1.55, 6.98, repro,
2008-02-27,-2.84, 2.50, -2.87, 2.10, 1.59, 7.13, repro,
2008-02-28,-1.97, 1.76, -5.56, 2.10, 1.58, 7.10, repro,
2008-02-29,-3.17, 1.38, -3.03, 2.07, 1.56, 7.00, repro,
2008-03-01,-0.32, 2.53, -4.55, 2.07, 1.56, 7.00, repro,
2008-03-02,-2.49, 2.65, 0.40, 2.11, 1.60, 7.20, repro,
2008-03-03,-3.95, 3.17, -0.02, 2.07, 1.55, 7.03, repro,
2008-03-04,-1.22, 1.91, -5.35, 2.05, 1.56, 6.97, repro,
2008-03-05,-2.55, 2.36, -0.76, 2.13, 1.65, 7.38, repro,
2008-03-06,-2.74, 1.23, -2.23, 2.08, 1.55, 7.00, repro,
2008-03-07,-2.94, 1.41, 2.05, 2.09, 1.57, 7.04, repro,
2008-03-08,-2.95, 3.36, 1.82, 2.17, 1.62, 7.51, repro,
2008-03-09,-1.76, 2.06, -3.77, 2.09, 1.60, 7.23, repro,
2008-03-10,-0.07, 1.39, -2.70, 2.06, 1.54, 6.91, repro,
2008-03-11,-1.84, 3.05, -5.08, 2.07, 1.54, 6.98, repro,
2008-03-12,-1.61, 1.06, 0.45, 2.07, 1.56, 7.01, repro,
2008-03-13,-0.65, 1.99, 6.58, 2.15, 1.65, 7.53, repro,
2008-03-14,-2.19, 1.01, -5.26, 2.05, 1.57, 7.05, repro,
2008-03-15,-3.09, 0.74, -1.87, 2.06, 1.54, 6.95, repro,
2008-03-16,-2.43, 2.72, 2.42, 2.08, 1.58, 7.05, repro,
2008-03-17,-1.91, 2.45, 2.34, 2.21, 1.71, 7.77, repro,
2008-03-18,-2.63, -1.38, 3.75, 2.13, 1.62, 7.32, repro,
2008-03-19,-1.75, 2.94, -0.50, 2.11, 1.59, 7.20, repro,
2008-03-20,-1.49, 1.89, 2.71, 2.08, 1.58, 7.11, repro,
2008-03-21,-1.11, 2.61, -5.22, 2.09, 1.57, 7.08, repro,
2008-03-22,-1.10, 1.58, -4.21, 2.11, 1.58, 7.17, repro,
2008-03-23,-0.11, 1.48, -7.72, 2.12, 1.59, 7.21, repro,
2008-03-24,-0.98, 3.29, -0.26, 2.11, 1.60, 7.26, repro,
2008-03-25,-1.18, 3.86, 3.89, 2.12, 1.61, 7.24, repro,
2008-03-26,-0.36, 1.51, -7.83, 2.13, 1.61, 7.27, repro,
2008-03-27,-2.70, 1.57, -3.84, 2.14, 1.62, 7.30, repro,
2008-03-28,0.08, 1.28, -2.39, 2.11, 1.58, 7.15, repro,
2008-03-29,-1.18, 2.24, 1.37, 2.09, 1.55, 7.08, repro,
2008-03-30,-0.71, 0.89, -0.59, 2.10, 1.54, 7.06, repro,
2008-03-31,-0.81, 1.80, -0.36, 2.07, 1.55, 7.02, repro,
2008-04-01,-1.55, 1.52, 0.36, 2.10, 1.55, 7.08, repro,
2008-04-02,-1.36, 1.59, 1.13, 2.15, 1.57, 7.23, repro,
2008-04-03,-1.36, 1.43, -1.27, 2.10, 1.56, 7.11, repro,
2008-04-04,0.27, 1.09, -4.60, 2.08, 1.56, 7.09, repro,
2008-04-05,-2.38, 1.46, 10.12, 2.08, 1.54, 7.02, repro,
2008-04-06,0.07, 1.61, 4.13, 2.10, 1.55, 7.13, repro,
2008-04-07,-1.85, 1.00, 0.41, 2.10, 1.56, 7.14, repro,
2008-04-08,-2.05, 1.02, -0.99, 2.11, 1.56, 7.16, repro,
2008-04-09,-0.89, 0.16, 2.49, 2.09, 1.55, 7.06, repro,
2008-04-10,-1.02, 1.31, -0.20, 2.07, 1.53, 7.00, repro,
2008-04-11,-1.49, 1.98, -2.23, 2.11, 1.58, 7.25, repro,
2008-04-12,-0.59, 2.46, -2.42, 2.10, 1.55, 7.10, repro,
2008-04-13,-1.89, 1.82, -1.23, 2.16, 1.61, 7.34, repro,
2008-04-14,-2.22, 0.70, 9.75, 2.13, 1.58, 7.24, repro,
2008-04-15,-0.21, 1.32, 3.54, 2.11, 1.60, 7.17, repro,
2008-04-16,-1.76, 1.89, 1.80, 2.11, 1.58, 7.16, repro,
2008-04-17,-1.26, 1.39, -1.35, 2.11, 1.55, 7.13, repro,
2008-04-18,-2.05, 1.76, 0.00, 2.13, 1.56, 7.21, repro,
2008-04-19,-0.98, 1.03, -1.60, 2.12, 1.56, 7.20, repro,
2008-04-20,-1.14, 1.74, 2.36, 2.11, 1.55, 7.15, repro,
2008-04-21,-2.53, 2.34, 2.54, 2.07, 1.53, 7.04, repro,
2008-04-22,-1.63, 1.92, -0.51, 2.09, 1.54, 7.07, repro,
2008-04-23,-1.53, 2.76, 0.50, 2.16, 1.62, 7.40, repro,
2008-04-24,-0.46, 2.28, -1.80, 2.13, 1.58, 7.25, repro,
2008-04-25,-0.45, 1.57, -0.39, 2.11, 1.55, 7.15, repro,
2008-04-26,-0.63, 2.25, -7.24, 2.20, 1.58, 7.35, repro,
2008-04-27,-0.11, 2.03, -7.61, 2.18, 1.57, 7.27, repro,
2008-04-28,-0.21, 2.13, -5.07, 2.18, 1.57, 7.25, repro,
2008-04-29,1.51, 1.36, -0.56, 2.26, 1.59, 7.41, repro,
2008-04-30,-1.90, 1.00, 3.65, 2.16, 1.60, 7.32, repro,
2008-05-01,-1.56, 2.39, -3.00, 2.17, 1.61, 7.34, repro,
2008-05-02,-0.86, 1.69, 4.67, 2.20, 1.64, 7.50, repro,
2008-05-03,0.12, 1.45, 0.59, 2.14, 1.59, 7.26, repro,
2008-05-04,-0.27, 1.80, 6.51, 2.11, 1.55, 7.14, repro,
2008-05-05,-1.58, 1.20, -0.25, 2.25, 1.66, 7.59, repro,
2008-05-06,-0.12, 0.63, 1.48, 2.16, 1.60, 7.34, repro,
2008-05-07,0.35, 1.88, 1.08, 2.17, 1.59, 7.43, repro,
2008-05-08,-0.39, 1.72, -2.01, 2.22, 1.65, 7.63, repro,
2008-05-09,-1.17, 1.34, 5.61, 2.13, 1.57, 7.25, repro,
2008-05-10,0.33, 2.04, 13.64, 2.10, 1.54, 7.11, repro,
2008-05-11,-1.20, 0.55, 7.55, 2.12, 1.58, 7.28, repro,
2008-05-12,-1.23, 0.33, 2.84, 2.17, 1.60, 7.34, repro,
2008-05-13,-0.52, 1.23, 3.98, 2.15, 1.55, 7.27, repro,
2008-05-14,0.65, 1.71, 6.78, 2.10, 1.54, 7.09, repro,
2008-05-15,-1.06, 3.33, 2.20, 2.11, 1.54, 7.12, repro,
2008-05-16,0.07, 2.25, -4.12, 2.16, 1.59, 7.29, repro,
2008-05-17,-0.80, 2.44, 3.58, 2.14, 1.59, 7.32, repro,
2008-05-18,-1.42, 0.86, 6.80, 2.25, 1.62, 7.48, repro,
2008-05-19,0.98, 2.92, 7.36, 2.17, 1.60, 7.37, repro,
2008-05-20,-0.80, 0.26, 8.26, 2.13, 1.55, 7.23, repro,
2008-05-21,0.53, 1.18, 3.68, 2.10, 1.55, 7.15, repro,
2008-05-22,0.58, 0.06, 0.62, 2.11, 1.58, 7.25, repro,
2008-05-23,0.57, 2.31, 7.75, 2.14, 1.60, 7.39, repro,
2008-05-24,-0.48, 0.35, 6.34, 2.12, 1.55, 7.17, repro,
2008-05-25,-1.15, 1.78, 7.63, 2.10, 1.53, 7.09, repro,
2008-05-26,-0.41, 1.67, 2.51, 2.11, 1.56, 7.17, repro,
2008-05-27,-2.34, 2.23, 5.71, 2.14, 1.58, 7.23, repro,
2008-05-28,-0.33, 2.25, 0.08, 2.09, 1.54, 7.08, repro,
2008-05-29,-0.03, 1.53, 7.37, 2.15, 1.59, 7.26, repro,
2008-05-30,0.87, 1.84, 7.22, 2.17, 1.58, 7.26, repro,
2008-05-31,-0.72, 2.05, 2.56, 2.11, 1.54, 7.12, repro,
2008-06-01,0.25, 1.46, 3.00, 2.15, 1.58, 7.23, repro,
2008-06-02,-0.44, 1.94, 1.55, 2.09, 1.53, 7.08, repro,
2008-06-03,0.11, 3.00, 5.48, 2.17, 1.61, 7.43, repro,
2008-06-04,-0.35, 2.88, 4.06, 2.12, 1.54, 7.12, repro,
2008-06-05,-0.70, 1.17, -2.55, 2.13, 1.55, 7.21, repro,
2008-06-06,0.55, 3.90, 1.36, 2.14, 1.57, 7.18, repro,
2008-06-07,0.45, 1.18, 6.00, 2.17, 1.61, 7.35, repro,
2008-06-08,-0.03, 2.05, 5.02, 2.15, 1.58, 7.23, repro,
2008-06-09,-0.79, 1.53, 5.02, 2.17, 1.59, 7.36, repro,
2008-06-10,-0.38, 0.63, -5.91, 2.12, 1.54, 7.17, repro,
2008-06-11,0.18, 1.83, 3.67, 2.10, 1.53, 7.10, repro,
2008-06-12,0.03, 3.03, 2.18, 2.11, 1.56, 7.18, repro,
2008-06-13,1.21, 2.02, 0.45, 2.11, 1.55, 7.18, repro,
2008-06-14,2.46, 1.65, -1.38, 2.15, 1.58, 7.30, repro,
2008-06-15,1.25, 2.09, 1.56, 2.19, 1.59, 7.43, repro,
2008-06-16,0.96, 1.13, -2.90, 2.15, 1.60, 7.33, repro,
2008-06-17,-0.75, 1.93, -0.56, 2.14, 1.57, 7.22, repro,
2008-06-18,1.19, 2.14, 2.22, 2.10, 1.54, 7.12, repro,
2008-06-19,1.48, 1.24, 0.51, 2.19, 1.65, 7.55, repro,
2008-06-20,0.44, 2.31, 4.37, 2.12, 1.55, 7.21, repro,
2008-06-21,-0.10, 2.29, 8.95, 2.15, 1.57, 7.32, repro,
2008-06-22,2.08, 1.01, -3.07, 2.11, 1.54, 7.12, repro,
2008-06-23,0.33, 2.36, 3.73, 2.11, 1.55, 7.21, repro,
2008-06-24,1.26, 2.62, 2.86, 2.13, 1.55, 7.20, repro,
2008-06-25,1.45, 1.77, 5.15, 2.15, 1.56, 7.27, repro,
2008-06-26,-0.13, 2.00, 11.46, 2.15, 1.59, 7.30, repro,
2008-06-27,0.14, 1.62, 8.24, 2.11, 1.53, 7.10, repro,
2008-06-28,-0.32, 0.96, 4.60, 2.12, 1.54, 7.13, repro,
2008-06-29,0.52, 2.33, 12.13, 2.25, 1.63, 7.60, repro,
2008-06-30,-0.35, 0.22, 4.20, 2.10, 1.53, 7.10, repro,
2008-07-01,-0.77, 1.84, 7.97, 2.11, 1.54, 7.15, repro,
2008-07-02,2.13, 0.74, 7.94, 2.12, 1.55, 7.25, repro,
2008-07-03,-0.28, -2.23, 4.21, 2.12, 1.54, 7.19, repro,
2008-07-04,2.28, -1.89, 19.36, 2.10, 1.54, 7.11, repro,
2008-07-05,3.56, -0.43, 6.83, 2.12, 1.55, 7.20, repro,
2008-07-06,1.01, 0.26, 5.99, 2.17, 1.61, 7.43, repro,
2008-07-07,1.04, 1.95, 6.56, 2.13, 1.55, 7.21, repro,
2008-07-08,0.79, 1.58, 5.16, 2.11, 1.54, 7.13, repro,
2008-07-09,-0.45, 2.37, 8.90, 2.11, 1.54, 7.12, repro,
2008-07-10,1.97, 1.57, 6.29, 2.18, 1.59, 7.34, repro,
2008-07-11,1.41, 2.60, 10.01, 2.20, 1.59, 7.38, repro,
2008-07-12,0.52, 0.41, 10.36, 2.14, 1.54, 7.23, repro,
2008-07-13,0.02, 0.79, 10.36, 2.20, 1.60, 7.48, repro,
2008-07-14,-1.97, 2.24, 10.07, 2.13, 1.54, 7.19, repro,
2008-07-15,4.41, 0.34, 8.65, 2.11, 1.54, 7.13, repro,
2008-07-16,-0.86, 2.58, 8.67, 2.12, 1.55, 7.15, repro,
2008-07-17,-0.35, 2.21, 10.87, 2.12, 1.54, 7.15, repro,
2008-07-18,-0.47, 2.14, 5.59, 2.27, 1.61, 7.59, repro,
2008-07-19,0.06, 1.27, 6.81, 2.18, 1.55, 7.32, repro,
2008-07-20,0.02, 1.71, 13.73, 2.11, 1.54, 7.12, repro,
2008-07-21,-0.60, 1.36, 19.04, 2.11, 1.55, 7.11, repro,
2008-07-22,-1.17, 1.04, 16.68, 2.13, 1.55, 7.22, repro,
2008-07-23,-0.65, 3.14, 9.50, 2.18, 1.55, 7.31, repro,
2008-07-24,1.38, 2.17, 10.52, 2.12, 1.54, 7.16, repro,
2008-07-25,-0.85, 0.81, 12.85, 2.15, 1.60, 7.34, repro,
2008-07-26,1.29, 1.41, 18.67, 2.10, 1.53, 7.09, repro,
2008-07-27,-0.01, 0.87, 10.65, 2.15, 1.58, 7.33, repro,
2008-07-28,1.54, 0.92, 17.10, 2.20, 1.58, 7.30, repro,
2008-07-29,1.13, 1.82, 10.37, 2.20, 1.56, 7.46, repro,
2008-07-30,-1.12, 1.66, 17.43, 2.22, 1.59, 7.60, repro,
2008-07-31,0.88, 0.28, 18.89, 2.09, 1.53, 7.04, repro,
2008-08-01,1.43, 1.70, 19.47, 2.10, 1.52, 7.04, repro,
2008-08-02,-0.57, 0.91, 11.73, 2.17, 1.59, 7.37, repro,
2008-08-03,0.91, 2.27, 15.97, 2.16, 1.60, 7.41, repro,
2008-08-04,0.54, 2.00, 12.49, 2.13, 1.55, 7.20, repro,
2008-08-05,0.03, 3.44, 7.16, 2.11, 1.54, 7.12, repro,
2008-08-06,0.00, 1.58, 11.25, 2.15, 1.55, 7.17, repro,
2008-08-07,0.33, 1.57, 23.42, 2.21, 1.59, 7.37, repro,
2008-08-08,0.10, 0.81, 18.78, 2.22, 1.60, 7.43, repro,